NOAA 16 DEB, 41260

Orbit data source: Space-Track

NOAA 16 DEB, 41260 is space debris in SSO originally from a launch on Thu, 21 Sep 2000 UTC launched from the Air Force Western Test Range (AFWTR). Debris objects in space refer to the collection of defunct objects orbiting the Earth. Examples of debris include non-operational satellites, rocket bodies, and fragments generated from explosions, collisions, or faulty payload assembly.

Loading next visibility...
Identifier
41260, 2000-055FL
Orbit
SSO
Country
Flag of USUS
Related business
Manufacturer
Unknown
Mission
Spacecraft
Bus & Motor
Unknown
Mass
Unknown
Launch date (UTC)
2000-09-21 (25 years ago)
Launch vehicle
Unknown
Launch site
Air Force Western Test Range (AFWTR)
Object type
Payload
Rocket body
Debris
Shape & HBR
Unknown shape, 0.1 m
Radar Cross Section
Small (<0.1 m²)

Expand to show TLE details & history
Last TLE update: 11 hours ago

TLE from 11 hours ago
0 NOAA 16 DEB
1 41260U 00055FL  26034.02893266  .00003333  00000-0  15010-2 0  9995
2 41260  98.7701 116.6042 0024923 166.5808 193.6038 14.22764186523259
Epoch: 2026-02-03T00:41Z
TLE epoch observation values (Epoch: 2026-02-03T00:41:39.781Z)
Latitude
-0.00003°
Longitude
-27.02729°
Altitude
836.369 km
Speed
7.426 km/s
True Right ascension
07h 46m 25s
True Declination
0° 00' 00"
Sunlit
Object was in full shadow at epoch
Visualization orbit readout
Latitude
Unknown
Longitude
Unknown
Altitude
Unknown
Speed
Unknown
Apparent Right ascension
Unknown
Apparent Declination
Unknown
Sunlit
N/A
Visualization observer readout
Local Sidereal Time
13:43:12
Azimuth
Unknown
Elevation
Unknown
Doppler factor
Unknown
Orbital elements
Apogee altitude
831.1 km
Perigee altitude
795.255 km
Semi-major axis
7,191.314 km
Eccentricity
0.00249
Inclination
98.7701°
RAAN
116.6042°
Arg. of periapsis
166.5808°
True anomaly
193.53683°
Mean anomaly
193.6038°
Eccentric anomaly
193.57029°
Mean motion
3.55902 °/min
Orbital period
101.15 mins
BSTAR
0.001501
Loading maneuver chart data...
Computing Atmospheric mass density...
Loading historical data...
Loading historical data...
Loading historical data...
Loading historical data...
Loading historical data...
Loading historical data...
Loading historical data...

Documentation

Showing up to 5 results
|